WMKK Airport Information

Runway Information
Runway 14L Length 13530 ft width 197 ft
Elevation 55 ft Threshold 0 ft Heading 146
Runway 32R Length 13530 ft Width 197 ft
Elevation 70 ft Threshold 344 ft Heading 326
Runway 14R Length 13288 ft width 197 ft
Elevation 54 ft Threshold 184 ft Heading 146
Runway 32L Length 13288 ft Width 197 ft
Elevation 48 ft Threshold 0 ft Heading 326
Runway 15 Length 12993 ft width 197 ft
Elevation 27 ft Threshold 0 ft Heading 146
Runway 33 Length 12993 ft Width 197 ft
Elevation 27 ft Threshold 0 ft Heading 326
Airport Frequencies
Type A/D Name LUMPUR APP Frequency 119.45 MHZ
Type ATIS Name LUMPUR ATI Frequency 126.45 MHZ
Type ATIS Name LUMPUR ATI Frequency 128.05 MHZ
Type CLD Name LUMPUR CLN Frequency 126 MHZ
Type DEPT Name LUMPUR DEP Frequency 135.25 MHZ
Type GND Name LUMPUR GND Frequency 121.65 MHZ
Type GND Name LUMPUR GND Frequency 122.275 MHZ
Type TWR Name LUMPUR TWR Frequency 118.5 MHZ
Type TWR Name LUMPUR TWR Frequency 118.8 MHZ
Type TWR Name LUMPUR TWR Frequency 119.8 MHZ
Airport Navaids
Type VOR-DME Name Kuala Lumpur Frequency 116100 KHZ
Airport Weather Information & NOTAM
ADDS - METARS form results

(1456 UTC 22 July 2018)
 
METAR text: WMKK 221430Z VRB01KT 9999 FEW030 SCT140 BKN280 27/25 Q1010 NOSIG
Conditions at: WMKK (KUALA LUMPUR/SUB, MY) observed 1430 UTC 22 July 2018
Temperature: 27.0°C (81°F)
Dewpoint: 25.0°C (77°F) [RH = 89%]
Pressure (altimeter): 29.82 inches Hg (1010.0 mb)
Winds: variable direction winds at 1 MPH (1 knots; 0.5 m/s)
Visibility: 6 or more miles (10+ km)
Ceiling: 28000 feet AGL
Clouds: few clouds at 3000 feet AGL
scattered clouds at 14000 feet AGL
broken clouds at 28000 feet AGL
Weather: no significant weather observed at this time

METAR text: WMKK 221400Z VRB02KT 9999 FEW030 SCT140 BKN280 27/25 Q1010 NOSIG
Conditions at: WMKK (KUALA LUMPUR/SUB, MY) observed 1400 UTC 22 July 2018
Temperature: 27.0°C (81°F)
Dewpoint: 25.0°C (77°F) [RH = 89%]
Pressure (altimeter): 29.82 inches Hg (1010.0 mb)
Winds: variable direction winds at 2 MPH (2 knots; 1.0 m/s)
Visibility: 6 or more miles (10+ km)
Ceiling: 28000 feet AGL
Clouds: few clouds at 3000 feet AGL
scattered clouds at 14000 feet AGL
broken clouds at 28000 feet AGL
Weather: no significant weather observed at this time